EZY13PC LFPG-EGKK

Flight info

Callsign EZY13PC
Flight time 0h 50m
Altitude 24000
Route OPALE DCT KESAX DCT KUNAV
Aircraft A320/M-SDE3FGHIRWY/LB1

Departure

Time 2026-05-07 11:28
Airport Charles de Gaulle International Airport (LFPG)

Arrival

Time 2026-05-07 12:18
Airport London Gatwick Airport (EGKK)
Time Latitude Longitude Altitude Speed Heading
2026-05-07 11:05 49.00690 2.56108 355 ft 0 kts 356°
2026-05-07 11:17 49.00687 2.56109 355 ft 3 kts 356°
2026-05-07 11:18 49.00665 2.56110 361 ft 3 kts 356°
2026-05-07 11:18 49.00646 2.56112 360 ft 3 kts 355°
2026-05-07 11:18 49.00631 2.56115 361 ft 3 kts 342°
2026-05-07 11:18 49.00614 2.56128 355 ft 3 kts 292°
2026-05-07 11:19 49.00613 2.56156 353 ft 3 kts 265°
2026-05-07 11:19 49.00614 2.56190 353 ft 3 kts 266°
2026-05-07 11:19 49.00615 2.56213 353 ft 0 kts 266°
2026-05-07 11:22 49.00615 2.56208 353 ft 3 kts 266°
2026-05-07 11:22 49.00610 2.56118 355 ft 13 kts 261°
2026-05-07 11:22 49.00583 2.55991 356 ft 12 kts 249°
2026-05-07 11:23 49.00568 2.55838 355 ft 17 kts 265°
2026-05-07 11:23 49.00558 2.55650 353 ft 19 kts 265°
2026-05-07 11:23 49.00500 2.55493 359 ft 18 kts 205°
2026-05-07 11:23 49.00381 2.55500 357 ft 18 kts 164°
2026-05-07 11:24 49.00262 2.55552 356 ft 19 kts 164°
2026-05-07 11:24 49.00131 2.55609 357 ft 21 kts 164°
2026-05-07 11:24 48.99982 2.55675 356 ft 23 kts 163°
2026-05-07 11:24 48.99918 2.55802 356 ft 9 kts 137°
2026-05-07 11:25 48.99882 2.55799 357 ft 5 kts 187°
2026-05-07 11:25 48.99851 2.55796 357 ft 4 kts 181°
2026-05-07 11:25 48.99824 2.55797 354 ft 4 kts 178°
2026-05-07 11:25 48.99802 2.55799 359 ft 3 kts 177°
2026-05-07 11:26 48.99764 2.55804 362 ft 9 kts 174°
2026-05-07 11:26 48.99704 2.55813 354 ft 8 kts 174°
2026-05-07 11:26 48.99651 2.55822 354 ft 9 kts 173°
2026-05-07 11:26 48.99605 2.55913 354 ft 12 kts 92°
2026-05-07 11:27 48.99611 2.56036 354 ft 11 kts 85°
2026-05-07 11:27 48.99624 2.56263 360 ft 48 kts 85°
2026-05-07 11:27 48.99671 2.57171 359 ft 120 kts 85°
2026-05-07 11:27 48.99759 2.58721 392 ft 169 kts 84°
2026-05-07 11:28 48.99855 2.60514 1155 ft 170 kts 83°
2026-05-07 11:28 48.99960 2.62317 1956 ft 175 kts 82°
2026-05-07 11:28 49.00076 2.64293 2367 ft 200 kts 83°
2026-05-07 11:28 49.00177 2.66208 2796 ft 221 kts 83°
2026-05-07 11:29 49.00306 2.68687 3356 ft 246 kts 83°
2026-05-07 11:29 49.00440 2.71353 4137 ft 258 kts 83°
2026-05-07 11:29 49.00576 2.74120 5173 ft 264 kts 83°
2026-05-07 11:29 49.00714 2.76929 6172 ft 268 kts 83°
2026-05-07 11:30 49.00856 2.79781 7101 ft 273 kts 84°
2026-05-07 11:30 49.01009 2.82701 8011 ft 279 kts 82°
2026-05-07 11:30 49.01603 2.85506 8879 ft 283 kts 57°
2026-05-07 11:30 49.02979 2.87668 9765 ft 288 kts 31°
2026-05-07 11:31 49.04850 2.88758 10554 ft 292 kts
2026-05-07 11:31 49.06870 2.88546 11370 ft 295 kts 341°
2026-05-07 11:31 49.08723 2.87040 11762 ft 314 kts 321°
2026-05-07 11:31 49.10479 2.84941 12098 ft 335 kts 320°
2026-05-07 11:32 49.14209 2.80412 13569 ft 348 kts 320°
2026-05-07 11:32 49.16126 2.78113 14317 ft 352 kts 321°
2026-05-07 11:32 49.18064 2.75802 15020 ft 356 kts 321°
2026-05-07 11:33 49.20028 2.73459 15728 ft 360 kts 321°
2026-05-07 11:33 49.21960 2.71152 16408 ft 365 kts 321°
2026-05-07 11:33 49.24031 2.68682 17104 ft 369 kts 321°
2026-05-07 11:33 49.26070 2.66249 17770 ft 374 kts 321°
2026-05-07 11:34 49.28134 2.63782 18432 ft 378 kts 321°
2026-05-07 11:34 49.30217 2.61289 19011 ft 382 kts 321°
2026-05-07 11:34 49.32315 2.58774 19606 ft 385 kts 321°
2026-05-07 11:34 49.34439 2.56225 20205 ft 388 kts 321°
2026-05-07 11:35 49.36569 2.53664 20790 ft 391 kts 321°
2026-05-07 11:35 49.38717 2.51079 21382 ft 394 kts 321°
2026-05-07 11:35 49.40881 2.48475 21950 ft 397 kts 321°
2026-05-07 11:35 49.42352 2.46706 22323 ft 399 kts 321°
2026-05-07 11:36 49.45262 2.43201 23055 ft 403 kts 321°
2026-05-07 11:36 49.47474 2.40525 23603 ft 406 kts 321°
2026-05-07 11:36 49.49705 2.37822 23967 ft 409 kts 321°
2026-05-07 11:36 49.51944 2.35108 24060 ft 409 kts 321°
2026-05-07 11:37 49.54187 2.32391 24077 ft 409 kts 321°
2026-05-07 11:37 49.56416 2.29689 24081 ft 409 kts 321°
2026-05-07 11:37 49.58647 2.26978 24078 ft 409 kts 321°
2026-05-07 11:37 49.60791 2.24367 24080 ft 408 kts 321°
2026-05-07 11:38 49.63018 2.21651 24080 ft 408 kts 321°
2026-05-07 11:38 49.65229 2.18947 24078 ft 408 kts 320°
2026-05-07 11:38 49.67449 2.16229 24082 ft 408 kts 320°
2026-05-07 11:38 49.69674 2.13502 24081 ft 408 kts 320°
2026-05-07 11:39 49.71898 2.10775 24074 ft 408 kts 320°
2026-05-07 11:39 49.74118 2.08050 24071 ft 407 kts 320°
2026-05-07 11:39 49.76337 2.05328 24069 ft 407 kts 320°
2026-05-07 11:39 49.78554 2.02610 24067 ft 407 kts 320°
2026-05-07 11:40 49.80776 1.99885 24060 ft 407 kts 320°
2026-05-07 11:40 49.82994 1.97156 24058 ft 407 kts 320°
2026-05-07 11:40 49.84467 1.95341 24057 ft 407 kts 320°
2026-05-07 11:40 49.86677 1.92610 24056 ft 407 kts 320°
2026-05-07 11:41 49.88888 1.89871 24052 ft 407 kts 320°
2026-05-07 11:41 49.91098 1.87131 24054 ft 407 kts 320°
2026-05-07 11:41 49.93309 1.84400 24052 ft 407 kts 320°
2026-05-07 11:41 49.95537 1.81658 24055 ft 407 kts 320°
2026-05-07 11:42 49.97751 1.78937 24057 ft 407 kts 320°
2026-05-07 11:42 49.99976 1.76203 24056 ft 407 kts 320°
2026-05-07 11:42 50.02190 1.73474 24058 ft 407 kts 320°
2026-05-07 11:42 50.04404 1.70733 24056 ft 407 kts 320°
2026-05-07 11:43 50.06616 1.67987 24057 ft 407 kts 320°
2026-05-07 11:43 50.08815 1.65195 24058 ft 407 kts 319°
2026-05-07 11:43 50.10962 1.62337 24060 ft 407 kts 317°
2026-05-07 11:43 50.13088 1.59423 24061 ft 407 kts 317°
2026-05-07 11:44 50.15204 1.56494 24062 ft 406 kts 317°
2026-05-07 11:44 50.17319 1.53566 24064 ft 407 kts 317°
2026-05-07 11:44 50.19429 1.50651 24069 ft 406 kts 317°
2026-05-07 11:44 50.21559 1.47727 24068 ft 406 kts 317°
2026-05-07 11:45 50.23432 1.45167 24066 ft 407 kts 317°
2026-05-07 11:45 50.25479 1.42377 24071 ft 407 kts 317°
2026-05-07 11:45 50.27615 1.39461 24070 ft 407 kts 317°
2026-05-07 11:45 50.29748 1.36548 24071 ft 407 kts 317°
2026-05-07 11:46 50.31851 1.33673 24073 ft 407 kts 317°
2026-05-07 11:46 50.33978 1.30758 24019 ft 406 kts 317°
2026-05-07 11:46 50.36085 1.27864 23781 ft 402 kts 317°
2026-05-07 11:46 50.38178 1.24989 23529 ft 399 kts 317°
2026-05-07 11:47 50.40263 1.22120 23248 ft 398 kts 317°
2026-05-07 11:47 50.42316 1.19285 22804 ft 390 kts 317°
2026-05-07 11:47 50.44344 1.16483 22319 ft 385 kts 317°
2026-05-07 11:47 50.46334 1.13723 21840 ft 379 kts 317°
2026-05-07 11:48 50.48296 1.11000 21386 ft 374 kts 317°
2026-05-07 11:48 50.50237 1.08310 20931 ft 370 kts 317°
2026-05-07 11:48 50.52098 1.05567 20492 ft 365 kts 312°
2026-05-07 11:48 50.53823 1.02665 20037 ft 361 kts 311°
2026-05-07 11:49 50.55531 0.99787 19553 ft 359 kts 311°
2026-05-07 11:49 50.57230 0.96923 19094 ft 357 kts 311°
2026-05-07 11:49 50.58922 0.94068 18614 ft 356 kts 311°
2026-05-07 11:49 50.60576 0.91274 18102 ft 355 kts 312°
2026-05-07 11:50 50.62258 0.88432 17590 ft 353 kts 312°
2026-05-07 11:50 50.63931 0.85600 17102 ft 351 kts 312°
2026-05-07 11:50 50.65585 0.82791 16599 ft 349 kts 312°
2026-05-07 11:50 50.67233 0.79990 16132 ft 347 kts 311°
2026-05-07 11:51 50.68843 0.77108 15407 ft 354 kts 309°
2026-05-07 11:51 50.70345 0.74225 14644 ft 362 kts 308°
2026-05-07 11:51 50.71379 0.72172 14120 ft 366 kts 307°
2026-05-07 11:51 50.72982 0.68945 13360 ft 369 kts 307°
2026-05-07 11:52 50.74555 0.65775 12783 ft 361 kts 307°
2026-05-07 11:52 50.76106 0.62678 11935 ft 358 kts 308°
2026-05-07 11:52 50.77623 0.59678 11685 ft 338 kts 308°
2026-05-07 11:52 50.79051 0.56866 11560 ft 318 kts 308°
2026-05-07 11:53 50.80394 0.54221 11388 ft 302 kts 308°
2026-05-07 11:53 50.81693 0.51660 11022 ft 294 kts 308°
2026-05-07 11:53 50.82955 0.49169 10772 ft 292 kts 308°
2026-05-07 11:53 50.84234 0.46645 10298 ft 296 kts 308°
2026-05-07 11:54 50.85513 0.44118 9805 ft 293 kts 308°
2026-05-07 11:54 50.86786 0.41607 9310 ft 290 kts 308°
2026-05-07 11:55 50.88032 0.39122 8365 ft 299 kts 308°
2026-05-07 11:55 50.89282 0.36622 8187 ft 283 kts 308°
2026-05-07 11:55 50.90495 0.34216 7641 ft 281 kts 308°
2026-05-07 11:55 50.91699 0.31839 7372 ft 268 kts 308°
2026-05-07 11:56 50.92819 0.29628 7188 ft 249 kts 308°
2026-05-07 11:56 50.93861 0.27507 6811 ft 239 kts 302°
2026-05-07 11:56 50.94547 0.25219 6941 ft 239 kts 288°
2026-05-07 11:56 50.94881 0.22640 6790 ft 239 kts 278°
2026-05-07 11:57 50.95081 0.20383 6645 ft 238 kts 278°
2026-05-07 11:57 50.95308 0.17794 6476 ft 237 kts 278°
2026-05-07 11:57 50.95523 0.15320 6312 ft 236 kts 278°
2026-05-07 11:57 50.95752 0.12695 6180 ft 236 kts 278°
2026-05-07 11:58 50.95976 0.10130 5991 ft 235 kts 278°
2026-05-07 11:58 50.96199 0.07603 5816 ft 234 kts 278°
2026-05-07 11:58 50.96423 0.05050 5628 ft 234 kts 278°
2026-05-07 11:58 50.96678 0.02513 5446 ft 233 kts 281°
2026-05-07 11:59 50.96988 -0.00017 5308 ft 233 kts 281°
2026-05-07 11:59 50.97300 -0.02481 5190 ft 232 kts 281°
2026-05-07 11:59 50.97619 -0.04995 5059 ft 232 kts 281°
2026-05-07 11:59 50.97939 -0.07505 4932 ft 232 kts 281°
2026-05-07 12:00 50.98259 -0.10011 4787 ft 232 kts 281°
2026-05-07 12:00 50.98580 -0.12511 4666 ft 231 kts 281°
2026-05-07 12:00 50.98897 -0.14976 4538 ft 231 kts 281°
2026-05-07 12:00 50.99216 -0.17471 4402 ft 230 kts 281°
2026-05-07 12:01 50.99533 -0.19954 4273 ft 230 kts 281°
2026-05-07 12:01 50.99852 -0.22435 4143 ft 229 kts 281°
2026-05-07 12:01 51.00168 -0.24917 4013 ft 229 kts 281°
2026-05-07 12:01 51.00483 -0.27387 3884 ft 229 kts 281°
2026-05-07 12:02 51.00800 -0.29863 3754 ft 228 kts 281°
2026-05-07 12:02 51.01116 -0.32332 3624 ft 228 kts 281°
2026-05-07 12:02 51.01432 -0.34797 3500 ft 228 kts 281°
2026-05-07 12:02 51.01746 -0.37262 3363 ft 228 kts 281°
2026-05-07 12:03 51.02057 -0.39690 3231 ft 228 kts 282°
2026-05-07 12:03 51.02716 -0.41936 3110 ft 227 kts 312°
2026-05-07 12:03 51.04025 -0.43230 3010 ft 221 kts 346°
2026-05-07 12:03 51.05535 -0.43434 3006 ft 212 kts 359°
2026-05-07 12:04 51.06998 -0.43406 3008 ft 210 kts
2026-05-07 12:04 51.08443 -0.43176 3000 ft 209 kts 15°
2026-05-07 12:04 51.09766 -0.42243 2839 ft 210 kts 35°
2026-05-07 12:04 51.10834 -0.40714 2642 ft 209 kts 48°
2026-05-07 12:05 51.11755 -0.38966 2536 ft 203 kts 54°
2026-05-07 12:05 51.12321 -0.36978 2479 ft 194 kts 77°
2026-05-07 12:05 51.12617 -0.34853 2127 ft 199 kts 78°
2026-05-07 12:05 51.12908 -0.32756 1830 ft 186 kts 78°
2026-05-07 12:06 51.13177 -0.30827 1562 ft 172 kts 78°
2026-05-07 12:06 51.13431 -0.29002 1331 ft 165 kts 78°
2026-05-07 12:06 51.13665 -0.27316 1114 ft 153 kts 78°
2026-05-07 12:06 51.13870 -0.25847 913 ft 143 kts 78°
2026-05-07 12:07 51.14079 -0.24338 725 ft 137 kts 78°
2026-05-07 12:07 51.14282 -0.22864 538 ft 135 kts 78°
2026-05-07 12:07 51.14488 -0.21410 353 ft 134 kts 78°
2026-05-07 12:07 51.14689 -0.19980 221 ft 130 kts 79°
2026-05-07 12:08 51.14842 -0.18791 212 ft 101 kts 78°
2026-05-07 12:08 51.15015 -0.17368 316 ft 160 kts 81°
2026-05-07 12:08 51.15215 -0.15511 1111 ft 178 kts 82°
2026-05-07 12:08 51.15426 -0.13513 1950 ft 187 kts 80°
2026-05-07 12:09 51.15661 -0.11389 2506 ft 203 kts 81°
2026-05-07 12:09 51.15873 -0.09116 2859 ft 210 kts 91°
2026-05-07 12:09 51.15455 -0.06921 2991 ft 217 kts 127°
2026-05-07 12:09 51.14262 -0.05412 3007 ft 224 kts 160°
2026-05-07 12:10 51.12723 -0.05037 3008 ft 226 kts 181°
2026-05-07 12:10 51.11242 -0.05722 3005 ft 225 kts 215°
2026-05-07 12:10 51.10252 -0.07608 3010 ft 225 kts 248°
2026-05-07 12:10 51.09796 -0.09978 3010 ft 226 kts 255°
2026-05-07 12:11 51.09410 -0.12409 3011 ft 226 kts 256°
2026-05-07 12:11 51.09034 -0.14841 3011 ft 226 kts 256°
2026-05-07 12:11 51.08695 -0.17050 3010 ft 226 kts 256°
2026-05-07 12:11 51.08321 -0.19486 3009 ft 227 kts 256°
2026-05-07 12:12 51.07988 -0.21935 3012 ft 226 kts 260°
2026-05-07 12:12 51.07738 -0.24408 3007 ft 226 kts 261°
2026-05-07 12:12 51.07500 -0.26885 3010 ft 227 kts 261°
2026-05-07 12:12 51.07264 -0.29357 3010 ft 227 kts 261°
2026-05-07 12:13 51.07026 -0.31835 3009 ft 227 kts 261°
2026-05-07 12:13 51.06795 -0.34250 3004 ft 214 kts 261°
2026-05-07 12:13 51.06578 -0.36510 2963 ft 202 kts 261°
2026-05-07 12:13 51.06413 -0.38709 2827 ft 198 kts 273°
2026-05-07 12:14 51.06877 -0.40660 2698 ft 193 kts 311°
2026-05-07 12:14 51.07999 -0.41703 2591 ft 188 kts 351°
2026-05-07 12:14 51.09244 -0.41356 2502 ft 182 kts 33°
2026-05-07 12:14 51.10143 -0.40051 2538 ft 172 kts 48°
2026-05-07 12:15 51.10903 -0.38619 2536 ft 168 kts 51°
2026-05-07 12:15 51.11624 -0.37204 2508 ft 157 kts 51°
2026-05-07 12:15 51.12290 -0.35888 2497 ft 150 kts 52°
2026-05-07 12:15 51.12667 -0.34379 2228 ft 146 kts 86°
2026-05-07 12:16 51.12846 -0.32790 1919 ft 146 kts 75°
2026-05-07 12:16 51.13092 -0.31246 1627 ft 141 kts 77°
2026-05-07 12:16 51.13316 -0.29738 1418 ft 138 kts 77°
2026-05-07 12:16 51.13528 -0.28261 1227 ft 136 kts 78°
2026-05-07 12:17 51.13733 -0.26810 1037 ft 134 kts 78°
2026-05-07 12:17 51.13936 -0.25365 850 ft 133 kts 78°
2026-05-07 12:17 51.14134 -0.23939 679 ft 131 kts 78°
2026-05-07 12:17 51.14333 -0.22528 475 ft 130 kts 78°
2026-05-07 12:18 51.14529 -0.21129 311 ft 129 kts 79°
2026-05-07 12:18 51.14720 -0.19747 211 ft 121 kts 78°
2026-05-07 12:18 51.14863 -0.18673 206 ft 75 kts 78°
2026-05-07 12:18 51.14955 -0.18049 213 ft 43 kts 72°
2026-05-07 12:19 51.15049 -0.17827 210 ft 20 kts 57°
2026-05-07 12:19 51.15104 -0.17759 210 ft 5 kts
2026-05-07 12:19 51.15105 -0.17760 210 ft 0 kts 354°
2026-05-07 12:21 51.15106 -0.17760 210 ft 0 kts 353°
2026-05-07 12:21 51.15120 -0.17762 206 ft 7 kts 354°
2026-05-07 12:21 51.15179 -0.17773 216 ft 8 kts 354°
2026-05-07 12:21 51.15234 -0.17778 205 ft 8 kts 10°
2026-05-07 12:22 51.15264 -0.17721 213 ft 6 kts 72°
2026-05-07 12:22 51.15271 -0.17677 207 ft 6 kts 76°
2026-05-07 12:22 51.15279 -0.17618 210 ft 5 kts 78°
2026-05-07 12:22 51.15288 -0.17553 216 ft 4 kts 78°
2026-05-07 12:23 51.15293 -0.17511 209 ft 4 kts 79°
2026-05-07 12:23 51.15298 -0.17456 210 ft 5 kts 82°
2026-05-07 12:23 51.15303 -0.17420 216 ft 5 kts 75°
2026-05-07 12:23 51.15332 -0.17374 209 ft 9 kts 19°
2026-05-07 12:24 51.15392 -0.17388 212 ft 9 kts 347°
2026-05-07 12:24 51.15451 -0.17409 212 ft 8 kts 347°
2026-05-07 12:24 51.15506 -0.17429 216 ft 8 kts 347°
2026-05-07 12:24 51.15562 -0.17448 205 ft 8 kts 348°
2026-05-07 12:25 51.15612 -0.17465 210 ft 7 kts 348°
2026-05-07 12:25 51.15658 -0.17481 210 ft 6 kts 348°
2026-05-07 12:25 51.15700 -0.17495 210 ft 6 kts 347°
2026-05-07 12:25 51.15744 -0.17523 213 ft 10 kts 318°
2026-05-07 12:26 51.15750 -0.17598 209 ft 11 kts 261°
2026-05-07 12:26 51.15735 -0.17699 205 ft 6 kts 241°
2026-05-07 12:26 51.15701 -0.17714 205 ft 5 kts 172°
2026-05-07 12:26 51.15671 -0.17703 205 ft 4 kts 167°
2026-05-07 12:27 51.15663 -0.17700 215 ft 0 kts 167°